Weather History for Newark, NJ

Change the Weather History Date:

Sunday, July 21, 2013

  Actual Average Record
Temperature  
Mean Temperature 83 °F 78 °F  
Max Temperature 89 °F 86 °F 103 °F (2011)
Min Temperature 76 °F 69 °F 58 °F (1951)
Degree Days  
Heating Degree Days 0 0  
Month to date heating degree days 0 0  
Since 1 June heating degree days 8 17  
Since 1 July heating degree days 0 0  
Cooling Degree Days 18 13  
Month to date cooling degree days 389 261  
Year to date cooling degree days 754 576  
Since 1 June cooling degree days 654 500  
Growing Degree Days 33 (Base 50)    
Moisture  
Dew Point 66 °F    
Average Humidity 63    
Maximum Humidity 85    
Minimum Humidity 40    
Precipitation  
Precipitation 0.00 in 0.16 in 3.23 in (2006)
Month to date precipitation 2.96 3.10  
Year to date precipitation 27.95 26.01  
Snow  
Snow 0.00 in 0.00 in 0.00 in (2002)
Month to date snowfall 0.0 0.0  
Since 1 July snowfall 0.0 0.0  
Snow Depth 0.00 in    
Sea Level Pressure  
Sea Level Pressure 29.90 in    
Wind  
Wind Speed 6 mph (ESE)    
Max Wind Speed 13 mph    
Max Gust Speed 17 mph    
Visibility 10 miles    
Events      
T = Trace of Precipitation, MM = Missing Value Source: NWS Daily Summary

Daily Weather History Graph

Daily Weather History Graph

Search for Another Location

Airport:

Trip Planner

Search our weather history database for the weather conditions in past years. The results will help you decide how hot, cold, wet, or windy it might be!

Date:

Astronomy

Jul. 21, 2013 Rise Set
Actual Time 5:43 AM EDT 8:22 PM EDT
Civil Twilight 5:11 AM EDT 8:53 PM EDT
Nautical Twilight 4:32 AM EDT 9:33 PM EDT
Astronomical Twilight 3:47 AM EDT 10:18 PM EDT
Moon 7:17 PM EDT (7/21) 4:26 AM EDT (7/21)
Length of Visible Light 15h 42m
Length of Day
14h 38m
Waxing Gibbous, 98% of the Moon is Illuminated
Jul 21
Waxing Gibbous
Jul 22
Full
Jul 29
Last Quarter
Aug 6
New
Aug 14
First Quarter

Hourly Weather History & Observations

Time (EDT) Temp. Heat Index Dew Point Humidity Pressure Visibility Wind Dir Wind Speed Gust Speed Precip Events Conditions
12:51 AM 79.0 °F - 71.1 °F 77% 29.84 in 10.0 mi Calm Calm - N/A   Mostly Cloudy
1:51 AM 78.1 °F - 72.0 °F 81% 29.85 in 10.0 mi SSW 4.6 mph - N/A   Clear
2:10 AM 77.0 °F - 71.6 °F 83% 29.85 in 10.0 mi SW 4.6 mph - N/A   Mostly Cloudy
2:51 AM 78.1 °F - 71.1 °F 79% 29.84 in 10.0 mi SW 4.6 mph - N/A   Mostly Cloudy
3:51 AM 79.0 °F - 71.1 °F 77% 29.84 in 10.0 mi WSW 4.6 mph - N/A   Mostly Cloudy
4:51 AM 77.0 °F - 71.1 °F 82% 29.86 in 10.0 mi West 5.8 mph - N/A   Mostly Cloudy
5:51 AM 77.0 °F - 71.1 °F 82% 29.87 in 10.0 mi NW 3.5 mph - N/A   Mostly Cloudy
6:51 AM 78.1 °F - 73.0 °F 84% 29.88 in 10.0 mi North 10.4 mph - N/A   Mostly Cloudy
7:51 AM 78.1 °F - 62.1 °F 58% 29.90 in 10.0 mi NNE 9.2 mph - N/A   Mostly Cloudy
8:51 AM 80.1 °F 81.5 °F 63.0 °F 56% 29.92 in 10.0 mi NNE 9.2 mph - N/A   Mostly Cloudy
9:51 AM 82.0 °F 82.7 °F 61.0 °F 49% 29.92 in 10.0 mi NNE 9.2 mph - N/A   Mostly Cloudy
10:51 AM 84.9 °F 84.8 °F 60.1 °F 43% 29.92 in 10.0 mi NE 6.9 mph 17.3 mph N/A   Mostly Cloudy
11:51 AM 84.9 °F 84.2 °F 57.9 °F 40% 29.93 in 10.0 mi East 4.6 mph - N/A   Mostly Cloudy
12:51 PM 86.0 °F 85.4 °F 59.0 °F 40% 29.94 in 10.0 mi ENE 4.6 mph - N/A   Mostly Cloudy
1:51 PM 87.1 °F 87.0 °F 61.0 °F 41% 29.93 in 10.0 mi Calm Calm - N/A   Mostly Cloudy
2:51 PM 87.1 °F 88.3 °F 64.0 °F 46% 29.93 in 10.0 mi SE 9.2 mph - N/A   Mostly Cloudy
3:51 PM 86.0 °F 87.3 °F 64.0 °F 48% 29.92 in 10.0 mi SSE 9.2 mph - N/A   Mostly Cloudy
4:51 PM 84.0 °F 84.9 °F 63.0 °F 49% 29.92 in 10.0 mi SE 8.1 mph - N/A   Mostly Cloudy
5:51 PM 82.9 °F 83.7 °F 62.1 °F 49% 29.91 in 10.0 mi SSE 8.1 mph - N/A   Mostly Cloudy
6:51 PM 81.0 °F 82.2 °F 63.0 °F 54% 29.92 in 10.0 mi Variable 4.6 mph - N/A   Mostly Cloudy
7:51 PM 80.1 °F 81.9 °F 64.9 °F 60% 29.92 in 10.0 mi SSE 6.9 mph - N/A   Mostly Cloudy
8:51 PM 79.0 °F - 64.9 °F 62% 29.94 in 10.0 mi SSE 4.6 mph - N/A   Mostly Cloudy
9:51 PM 79.0 °F - 66.9 °F 66% 29.96 in 10.0 mi Calm Calm - N/A   Mostly Cloudy
10:51 PM 78.1 °F - 69.1 °F 74% 29.96 in 10.0 mi East 3.5 mph - N/A   Mostly Cloudy
11:51 PM 78.1 °F - 66.9 °F 68% 29.95 in 10.0 mi Calm Calm - N/A   Mostly Cloudy